Location: Cerroniocc
(13.7547°S, 72.0222°W)
Time: 14:28:56
(UTC+00:00)

Daily predictions for brighter satellites

Satellite Brightness Start Highest point End
(mag) Time Altitude Azimuth Time Altitude Azimuth Time Altitude Azimuth
ATLAS 2AS CENTAUR RB 3.3 22:37:41 10° WNW 22:56:16 57° N 23:00:00 10° E
Meteor 1-22 Rocket 4.1 22:51:01 10° N 22:56:22 76° E 23:01:58 10° S
CZ-4 R/B 3.3 22:59:12 10° ESE 23:01:15 13° E 23:03:17 10° NE
GEOS 3 Rocket 4.4 23:01:32 10° ENE 23:06:00 29° ESE 23:10:24 10° S
Cosmos 2322 Rocket 2.4 23:00:40 10° S 23:06:05 48° ESE 23:11:28 10° NE
Cosmos 1726 4.2 23:07:18 10° E 23:07:30 10° E 23:07:41 10° E
Cosmos 1470 3.3 23:05:49 10° NNE 23:09:31 38° E 23:13:15 10° SSE
Cosmos 841 Rocket 4.4 23:05:12 10° SSW 23:10:19 53° WNW 23:15:21 10° N
ASTEX 1 3.5 23:06:03 10° SSE 23:10:58 61° E 23:15:53 10° N
IRS-1C Rocket 4.1 23:09:11 10° SSE 23:14:24 61° ENE 23:19:35 10° N
Cosmos 2084 Rocket 4.5 23:10:38 10° N 23:14:36 31° ENE 23:17:48 14° ESE
Helios 1A Rocket 2.9 23:11:49 10° SSE 23:15:59 77° E 23:20:07 10° N
Meteor 2-5 Rocket 3.9 23:10:37 10° S 23:16:06 51° E 23:21:38 10° NNE
USA 215 3.2 23:10:01 10° NE 23:16:28 67° SE 23:22:57 10° SSW
Cosmos 1939 Rocket 3.9 23:13:26 10° SE 23:17:01 28° E 23:20:33 10° NNE
Cosmos 2297 Rocket 3.4 23:14:08 10° NNE 23:18:18 21° ENE 23:21:06 15° ESE
CZ-2D R/B 4.3 23:21:16 16° SE 23:23:26 25° E 23:26:40 10° NNE
GPS 2-14 Rocket1 3.7 23:21:32 10° WSW 23:24:53 29° S 23:26:41 20° SE
SL-24 R/B - RUBIN 2 4.2 23:22:16 10° S 23:26:35 38° ESE 23:31:23 10° NE
Cosmos 1777 Rocket 4.0 23:22:36 10° N 23:27:51 75° ENE 23:33:08 10° SSE
Cosmos 1674 3.4 23:25:51 10° SSW 23:29:37 56° W 23:33:22 10° N
Cosmos 1626 2.6 23:27:41 10° SSE 23:31:08 36° E 23:34:33 10° NNE
CREW DRAGON DEMO-1 DEB 2.7 23:28:28 10° SSW 23:31:33 63° SE 23:34:32 10° NE
Cosmos 1340 Rocket 3.3 23:29:07 10° NNE 23:32:46 37° E 23:34:42 22° SE
NOAA 11 4.1 23:27:34 10° SSE 23:33:02 68° ENE 23:38:26 10° N
Cosmos 1758 3.2 23:34:11 10° N 23:38:11 88° E 23:42:12 10° S
MOS 1 Rocket 3.8 23:33:19 10° NNE 23:38:20 46° ESE 23:43:31 10° S
Cosmos 2266 Rocket 3.9 23:33:02 10° S 23:39:07 86° W 23:45:09 10° N
Shenzhou-11 Module 3.6 23:38:25 10° N 23:39:44 17° NNE 23:39:44 17° NNE
Meteor 1-24 Rocket 3.6 23:35:23 10° S 23:40:51 67° E 23:46:29 10° NNE
GPS 2-12 Rocket1 4.0 23:38:30 10° W 23:43:07 47° NNW 23:47:10 13° NE
Cosmos 2360 Rocket 2.2 23:38:22 10° S 23:43:51 52° ESE 23:49:17 10° NNE
IRS-P2 Rocket 4.5 23:38:40 10° SSE 23:43:55 83° ENE 23:49:08 10° N
SL-24 R/B 4.2 23:40:38 10° N 23:45:11 74° W 23:49:14 10° SSW
SL-4 R/B 2.4 23:42:18 10° NNW 23:47:05 65° NE 23:49:04 34° SE
NOSS 3-3 (A) 3.9 23:44:12 10° S 23:49:42 43° ESE 23:54:57 10° NE
NOSS 3-3 (C) 4.0 23:44:18 10° S 23:49:48 43° ESE 23:55:02 10° NE
Palapa 6 Rocket 3.4 23:48:20 10° WNW 23:54:04 72° NNE 23:55:44 41° E
Cosmos 1892 Rocket 3.5 23:49:57 10° S 23:54:19 83° W 23:58:38 10° N
Ariane H10 4.1 23:54:44 10° NNW 23:56:01 12° N 23:57:14 10° NNE
